Hourly Data Report for October 29, 2016

All times are specified in Local Standard Time (LST). Add 1 hour to adjust for Daylight Saving Time where and when it is observed.

MONCTON INTL A
NEW BRUNSWICK

46°06'44.000" N
64°40'43.000" W
70.70 m
8103201
71705
YQM

Download Data

Hourly Data (October 2016)
Hourly Data Report for October 29, 2016
Temp Definition
°C
Dew Point Temp Definition
°C
Rel Hum Definition
%
Wind Dir Definition
10's deg

Wind Spd Definition
km/h
Visibility Definition
km
Stn Press Definition
kPa
Hmdx Definition


Wind Chill Definition


Weather Definition


TIME
00:00 Legend Double Dagger 5.5 5.1 97 5 18 16.1 100.96     Rain
01:00 Legend Double Dagger 6.0 5.6 97 4 22 16.1 100.88     Rain
02:00 Legend Double Dagger 6.2 5.6 96 2 24 16.1 100.78     Rain
03:00 Legend Double Dagger 6.3 5.9 97 3 28 16.1 100.72     Rain
04:00 Legend Double Dagger 6.7 6.1 96 3 25 16.1 100.67     Rain
05:00 Legend Double Dagger 7.0 6.6 97 2 34 8.1 100.62     Rain,Fog
06:00 Legend Double Dagger 7.3 6.9 97 1 34 4.0 100.60     Rain,Drizzle,Fog
07:00 Legend Double Dagger 7.4 7.0 97 3 28 3.6 100.54     Rain,Drizzle,Fog
08:00 Legend Double Dagger 7.3 6.9 97 2 32 4.0 100.47     Rain,Drizzle,Fog
09:00 Legend Double Dagger 7.8 7.4 97 2 28 2.8 100.45     Drizzle,Fog
10:00 Legend Double Dagger 8.2 7.8 97 1 25 2.4 100.42     Drizzle,Fog
11:00 Legend Double Dagger 8.9 8.5 97 1 23 2.4 100.37     Drizzle,Fog
12:00 Legend Double Dagger 8.9 8.5 97 35 22 1.6 100.32     Drizzle,Fog
13:00 Legend Double Dagger 9.8 9.2 96 1 21 4.0 100.19     Drizzle,Fog
14:00 Legend Double Dagger 9.9 9.3 96 1 18 4.8 100.08     Drizzle,Fog
15:00 Legend Double Dagger 9.6 9.0 96 36 17 4.8 100.06     Fog
16:00 Legend Double Dagger 9.2 8.8 97 34 16 4.0 100.07     Drizzle,Fog
17:00 Legend Double Dagger 9.0 8.7 98 33 11 2.0 100.02     Drizzle,Fog
18:00 Legend Double Dagger 8.8 8.5 98 30 8 19.3 99.97     LegendNANA
19:00 Legend Double Dagger 8.5 8.2 98 31 7 19.3 99.88     LegendNANA
20:00 Legend Double Dagger 8.3 8.0 98 27 9 1.2 99.86     Fog
21:00 Legend Double Dagger 7.8 7.5 98 23 11 11.3 99.85     LegendNANA
22:00 Legend Double Dagger 7.4 7.1 98 22 13 1.6 99.73     Fog
23:00 Legend Double Dagger 7.3 7.0 98 24 16 2.4 99.72     Rain,Fog

Notes on Data Quality.

Legend

  • E = Estimated
  • M = Missing
  • NA = Not Available
  • ‡ = Partner data that is not subject to review by the National Climate Archives
Date modified: